Regional Weather Roundup
Issued by NWS

Home | Current Version | Previous Version | Graphics & Text | Print | Product List | Glossary On
Versions: 1 2 3 4 5 6 7 8 9 10 11 12 13 14 15 16 17 18 19 20 21 22 23 24 25 26 27 28 29 30 31 32 33 34 35 36 37 38 39 40 41 42 43 44 45 46 47 48 49 50
000
ASUS43 KOAX 232210
RWRNE

WEATHER ROUNDUP FOR NEBRASKA
NATIONAL WEATHER SERVICE OMAHA NE
400 PM CST THU NOV 23 2017

NOTES: SATELLITE DATA IS BEING USED TO AUGMENT CLOUD COVER ABOVE
       12000 FEET.
       "FAIR" INDICATES FEW OR NO CLOUDS BELOW 12,000 FEET WITH NO
       SIGNIFICANT WEATHER AND/OR OBSTRUCTIONS TO VISIBILITY.


NEZ001>004-019>022-054>056-232300-
NEBRASKA PANHANDLE

CITY           SKY/WX    TMP DP  RH WIND       PRES   REMARKS
SCOTTSBLUFF    CLOUDY    67  36  31 NW7       29.90F
ALLIANCE       CLOUDY    66  37  34 W7        29.87F
CHADRON        SUNNY     74  34  23 W18G25    29.81F
GORDON         FAIR      73  36  25 W13       29.83S
KIMBALL        CLOUDY    68  30  24 W14       29.97F
SIDNEY         SUNNY     70  31  23 W12       29.94F
$$

NEZ057>060-069>072-079>082-232300-
SOUTHWEST NEBRASKA

CITY           SKY/WX    TMP DP  RH WIND       PRES   REMARKS
NORTH PLATTE   SUNNY     71  42  35 W10       29.88F
IMPERIAL       CLOUDY    73  35  25 W16       29.91F
LEXINGTON      SUNNY     71  41  33 SW9       29.89S
MCCOOK         SUNNY     70  42  36 SW5       29.90F
OGALLALA       SUNNY     71  38  30 SW7       29.90F
$$

NEZ005>010-023>029-035>040-094-232300-
NORTH CENTRAL NEBRASKA

CITY           SKY/WX    TMP DP  RH WIND       PRES   REMARKS
VALENTINE      SUNNY     73  38  27 W13       29.79F
AINSWORTH      SUNNY     73  40  31 W12       29.81S
BROKEN BOW     SUNNY     70  43  37 SW10      29.86F
O`NEILL        CLEAR     67  43  41 SW7       29.80F
ORD            SUNNY     71  41  33 SW13      29.83F
THEDFORD       CLOUDY    73  40  31 W14       29.85F
$$

NEZ041-046>049-061>064-073>077-083>087-232300-
SOUTH CENTRAL NEBRASKA

CITY           SKY/WX    TMP DP  RH WIND       PRES   REMARKS
GRAND ISLAND   SUNNY     70  41  34 SW14      29.87F
AURORA         CLEAR     70  39  31 SW10      29.87S
HASTINGS       SUNNY     69  38  32 SW10      29.89F
HEBRON         SUNNY     70  39  32 SW9       29.90S
HOLDREGE       SUNNY     68  43  40 SW10      29.90S
KEARNEY        SUNNY     70  42  36 SW13      29.89S
YORK           CLEAR     72  41  33 SW12      29.87S
$$

NEZ011>018-030>034-042>045-232300-
NORTHEAST NEBRASKA

CITY           SKY/WX    TMP DP  RH WIND       PRES   REMARKS
NORFOLK        CLEAR     70  42  36 SW14      29.81F
ALBION         CLEAR     72  42  34 SW10G17   29.82F
BLAIR          CLEAR     61  39  44 S9        29.87S
COLUMBUS       CLEAR     71  43  36 SW13      29.85F
FREMONT        CLEAR     65  39  38 S7        29.86F
TEKAMAH        CLEAR     62  38  40 S12       29.86S
WAYNE          CLEAR     65  38  36 S9        29.81F
$$

NEZ050>053-065>068-078-088>093-232300-
SOUTHEAST NEBRASKA

CITY           SKY/WX    TMP DP  RH WIND       PRES   REMARKS
LINCOLN        CLEAR     70  41  34 S12       29.87F
OMAHA EPPLEY   PTCLDY    60  38  43 SE9       29.88F
BEATRICE       CLEAR     70  43  37 S8        29.89F
FALLS CITY     CLOUDY    65  39  38 SE5       29.90F
NEBRASKA CITY  CLEAR     63  40  42 S6        29.89F
PLATTSMOUTH    CLEAR     63  38  40 S7        29.89S
$$

NEZ044-045-051>053-067-232300-
OMAHA AREA

CITY           SKY/WX    TMP DP  RH WIND       PRES   REMARKS
OMAHA EPPLEY   PTCLDY    60  38  43 SE9       29.88F
BLAIR          CLEAR     61  39  44 S9        29.87S
FREMONT        CLEAR     65  39  38 S7        29.86F
MILLARD        CLEAR     64  40  41 SE6       29.88S
OFFUTT AFB     CLEAR     63  37  39 SE8       29.88F
PLATTSMOUTH    CLEAR     63  38  40 S7        29.89S
WAHOO          FAIR      66  39  36 S8        29.87S
$$



USA.gov is the U.S. government's official web portal to all federal, state and local government web resources and services.